{"data":{"norad_id":67493,"epoch":"2026-05-24T23:16:52.019328Z","epoch_age_seconds":77876,"freshness":"FRESH","line1":"1 67493U 26012A   26144.97004652  .00013321  00000+0  49253-3 0  9995","line2":"2 67493  43.0035 243.9876 0001142 292.4909  67.5822 15.27593323 19424","mean_motion":15.27593323,"eccentricity":0.0001142,"inclination_deg":43.0035,"raan_deg":243.9876,"arg_perigee_deg":292.4909,"mean_anomaly_deg":67.5822,"bstar":0.00049253,"rev_number":1942,"period_min":94.265926560351,"perigee_km":482.22565957835,"apogee_km":483.792745371,"semimajor_km":6861.1462024747,"source":"CELESTRAK","updated_at":"2026-05-25T13:38:21.566077Z"}}